Find Protostar 2

NORAD ID: 34941 Int'l Des: 2009-027 Owner: PROTO Country: BM operational
HEOCIRCULARGSOGEO

Current View

Loading 3D Globe...

About Protostar 2

Protostar 2 (NORAD 34941) is a satellite launched May 16, 2009 by PROTO of BM. It operates in HEO, CIRCULAR, GSO, GEO orbit with a mass of 3905.00 kg.

Upcoming Passes

Passes for default location (London). Set your location on the main map for personalized predictions.

Altitude History

Loading altitude history...

Two-Line Element Set

1 34941U 09027A 26194.90573847 -.00000350 00000-0 00000+0 0 9992
2 34941 0.0288 63.7157 0000547 170.6485 131.7065 1.00268794 62892
Epoch: Jul 13, 2026 • Age: 8 hours

Current Status

Altitude 35787.4 km
Apogee / Perigee N/A
Velocity 3.07 km/s
Sub-Earth Point 0.05°N, 108.23°E
Launch Date May 16, 2009
Age 17.1 years
Type other

Technical Details

Classification Payload
Mass 3905.00 kg
Dry Mass 2000.00 kg
Total Mass 3905.00 kg
Length 4.10 m
Diameter 3.60 m
Span 26.00 m
Shape Box + 2 Pan
Manufacturer BOES
Bus Type HS-601HP
Phase Status Unknown Active Status
Owner/State PROTO/BM

Most Searched